Terminal Aerodrome Forecast
Issued by NWS

Home | Current Version | Previous Version | Text Only | Print | Product List | Glossary On
Versions: 1 2 3 4 5 6 7 8 9 10 11 12 13 14 15 16 17 18
000
FTUS45 KRIW 271300 AAA
TAFCPR
TAF AMD
KCPR 271359Z 2714/2812 VRB05KT P6SM -SHRA SCT013 OVC100
     FM271600 09007KT P6SM -SHRA SCT040 OVC080
     FM272000 10008KT P6SM -SHRA VCTS FEW030 BKN060CB
     FM280000 VRB06KT P6SM -SHRA SCT030 BKN045
     FM280300 VRB05KT P6SM VCSH BKN040
     FM280600 28006KT P6SM SCT040 BKN060=

USA.gov is the U.S. government's official web portal to all federal, state and local government web resources and services.